Location: Cambridge (historical)
(38.6883°N, 119.0140°W)
Time: 06:37:38
(UTC+00:00)

VELOX 1 - Pass Details

Date: 30 September 2021
Orbit: 627 x 642 km, 98.3° (Epoch: 24 October)

Event Time Altitude Azimuth Distance (km) Brightness Sun altitude
Exits shadow 11:04:42 17° 13° (NNE) 1,580 ? -32.5°
Drops below altitude 10° 11:05:54 10° 5° (N) 2,012 ? -32.3°
Sets 11:08:13 0° 357° (N) 2,923 ? -31.9°
